Tracking 31013 objects as of 10-Jul-2025
HD Live streaming from Space Station
objects crossing your sky now

STARLINK-32704

Track STARLINK-32704 now!
10-day predictions
STARLINK-32704 is classified as:


NORAD ID: 62826
Int'l Code: 2025-018W
Perigee: 480.2 km
Apogee: 482.9 km
Inclination: 53.2 °
Period: 94.1 minutes
Semi major axis: 6852 km
RCS: Unknown
Launch date: January 24, 2025
Source: United States (US)
Launch site: AIR FORCE WESTERN TEST RANGE (AFWTR)
Your satellite tracking list
Your tracking list is empty




NASA's NSSDC Master Catalog

Two Line Element Set (TLE):
1 62826U 25018W   25190.87050147  .00027021  00000-0  91377-3 0  9991
2 62826  53.1634 357.3444 0001953   1.1267 358.9738 15.30459763 25994
Source of the keplerian elements: AFSPC